Regional Weather Roundup
Issued by NWS Bismarck, ND

Home | Current Version | Previous Version | Text Only | Print | Product List | Glossary On
Versions: 1 2 3 4 5 6 7 8 9 10 11 12 13 14 15 16 17 18 19 20 21 22 23 24 25 26 27 28 29 30 31 32 33 34 35 36 37 38 39 40 41 42 43 44 45 46 47 48 49 50
000
ASUS43 KBIS 131220
RWRBIS

NWR BROADCAST TEXT
NATIONAL WEATHER SERVICE BISMARCK ND
700 AM CDT SUN JUL 13 2014

NOTE: "FAIR" INDICATES FEW OR NO CLOUDS BELOW 12,000 FEET WITH NO
SIGNIFICANT WEATHER AND/OR OBSTRUCTIONS TO VISIBILITY.


CITY           SKY/WX    TMP DP  RH WIND       PRES   REMARKS
WILLISTON      MOCLDY    55  49  80 NW7       30.15R
MINOT          CLEAR     55  44  66 W13       30.07S
MINOT AFB      CLEAR     52  49  91 W8        30.07R
BISMARCK       CLEAR     58  50  75 NW8       30.09R
DICKINSON      CLEAR     52  48  86 NW7       30.14R
GARRISON         N/A     51  47  86 NW9       30.10R
HETTINGER ARPT CLEAR     51  49  92 W6        30.15R
JAMESTOWN      CLEAR     57  52  83 NW9       30.02R
CARRINGTON     FAIR      54  54 100 NW10      30.04S
CROSBY           N/A     50  48  93 NW10      30.15R
HARVEY         FAIR      50  50 100 NW8       30.05S
HAZEN          FAIR      54  48  82 W3        30.12R
LINTON         FAIR      54  54 100 W6        30.08R
MANDAN         FAIR      57  48  72 NW8       30.11R
RUGBY          FAIR      50  50 100 W9        30.04R
STANLEY          N/A     50  46  87 NW12G17   30.12R
TIOGA          FAIR      52  50  93 NW9       30.16S
WATFORD CITY   FAIR      52  48  87 CALM      30.14R FOG
$$

CITY           SKY/WX    TMP DP  RH WIND       PRES   REMARKS
GRAND FORKS    SUNNY     53  50  89 NW6       29.95R
GRAND FORKS AF SUNNY     55  52  88 NW9       29.96R
DEVILS LAKE    CLEAR     57  46  67 NW14      29.99S
FARGO          SUNNY     56  52  86 W5        29.97R
CANDO          FAIR      52  48  87 W12       30.01S
CAVALIER       FAIR      54  48  82 W10       29.93S
GRAFTON        FAIR      54  50  87 W9        29.94R
GWINNER        SUNNY     61  55  82 W7        30.02R
LANGDON        FAIR      48  46  93 W10       29.97S
ROLLA          FAIR      55  45  67 NW13G18   30.02S
WALHALLA         N/A     55  48  76 W10         N/A
$$

CITY           SKY/WX    TMP DP  RH WIND       PRES   REMARKS
ABERDEEN       CLEAR     54  53  97 W3        30.04R
MOBRIDGE       CLEAR     58  57  97 CALM      30.06R
BUFFALO          N/A     57  48  72 W9        30.12R
RAPID CITY     PTCLDY    60  52  74 W7        30.20R
SIDNEY         CLOUDY    57  52  82 NW8       30.19R
GLENDIVE       CLEAR     59  48  67 NW5       30.21R
$$

CITY           SKY/WX    TMP DP  RH WIND       PRES   REMARKS
BILLINGS       CLEAR     60  43  53 NW9       30.25R
REGINA         CLEAR     48  45  87 W7        30.16R
ESTEVAN        CLEAR     48  46  93 W7        30.13R FOG
$$




USA.gov is the U.S. government's official web portal to all federal, state and local government web resources and services.